Погода в Аккудуке

Погода в Аккудуке : погода сейчас, прогноз погоды и архив. Всё, что Вы хотите узнать о погоде в Аккудуке!

Хотите узнать прогноз погоды в Аккудуке? Тогда Вам сюда: Погода в Аккудуке

Поиск расширенной информации на нашем сайте:

Другие новости

Новости СМИ2

Главная страница сайта

Новости сайта

03.07.2017

Напоминаем, что на нашем специализированном сайте Метеоцентр.Азия вы можете получить высокодетализированные автоматические прогнозы погоды по пунктам России, СНГ и мира в авиационном формате (включающие направление и скорость ветра, видимость, явления погоды, количество и форму облачности, нижнюю и верхнюю границу облачности).

Рекомендуем: Кондиционеры Panasonic inverter

Погода в Аккудуке - сегодня

Время (UTC), дата Ветер
(°,м/с) 
Видим.   Явления Облачность Т
(°С)
Тd
(°С)
f(%) Тe
(°С)
Pmin
(гПа)
dP
(гПа)
Po
(мм)
O2
(г/м3)
Тmin Tmax R s Состояние
почвы
15 20.02.18 320 (СЗ) 20000 м    9/6 1000 м средняя 
[Sc|As trans]
-2.5 -4.2 88 -4  1019.9  1.2  757  308    -0.6       
18 20.02.18 310 (СЗ) 20000 м    9/9 600 м 
[Sc]
-1 -3.4 84 -3  1018.6  0.6  756  306           
21 20.02.18 320 (СЗ) 20000 м    ясно 
-5.7 -6.8 92 -8  1022.1  0.6  759  313           
00 21.02.18 320 (СЗ) 20000 м    ясно 
-5.7 -6.8 92 -8  1022.1  0.6  759  313           
03 21.02.18 320 (СЗ) 20000 м    9/9 600 м 
[Sc]
-6 -7.1 92 -7  1023.1  0.7  760  314  -10.6      равномерный
сухой снег
100% 
06 21.02.18 360 (С) 20000 м    9/0 
-3.1 -5 87 -3  1024.5  1.6    -10.6         
09 21.02.18 060 (СВ) 20000 м    9/0 средняя 
[As trans]
-0.4 -5.7 67 -1  1025.3  761  308           
12 21.02.18 060 (СВ) 20000 м    9/0 средняя 
[Ac cast]
+1.3 -2.6 75 1024.4  -0.9  761  305           
15 21.02.18 040 (СВ) 20000 м    9/9 1000 м 
[Sc]
+1.5 -1.7 79 +1  1024.4  761  305    +1.8       
18 21.02.18 050 (СВ) 20000 м    10/10 1000 м 
[Sc]
+0.2 -2.3 83 -2  1025.1  0.6  761  307    +1.8       
21 21.02.18 060 (СВ) 20000 м    8/8 600 м 
[Sc]
-1.1 -3.3 85 -3  1024.8  -0.3  761  308           
00 22.02.18 070 (В) 20000 м    6/6 600 м 
[Sc]
-2.4 -4 89 -3  1024.4  -0.5  761  310           
06 22.02.18 080 (В) 20000 м    9/0 средняя 
[Ac cast]
-0.4 -3.8 78 -1  1023.5  -0.3  760  307  -3.9         
09 22.02.18 080 (В) 20000 м    9/0 средняя 
[Ac cast]
+3 -2.1 69 +2  1023  -0.4  760  303           
12 22.02.18 100 (В) 20000 м    9/0 средняя 
[Ac und]
+6 +1.1 71 +4  1020.4  -2.4  758  299           
15 22.02.18 060 (СВ) 20000 м    9/6 1000 м средняя 
[Sc|As trans]
+3.6 +0.4 80 +3  1019.3  -1.2  757  301    +6.1       
18 22.02.18 070 (В) 20000 м    10/3 600 м кучево-дожд., средняя 
[Cb cap|As trans]
+2.2 -0.2 84 +2  1019.7  0.4  757  303    +6.1       
21 22.02.18 060 (СВ) 20000 м    10/5 600 м кучево-дожд., средняя 
[Cb cap|As op]
+1.1 -0.9 86 1019.4  -0.4  757  304           
00 23.02.18 110 (В) 20000 м    10/10 600 м 
[Sc]
+0 -1.2 92 +1  1018.4  -1  756  305           
06 23.02.18 350 (С) 20000 м    10/10 600 м 
[Sc]
+2 +0.1 87 +1  1019.6  1.4  757  303  +0         
09 23.02.18 040 (СВ) 20000 м    10/10 600 м 
[Sc]
+4.8 +0.9 76 +6  1019.3  -0.3  757  300           
12 23.02.18 080 (В) 20000 м    10/10 600 м 
[Cu Sc]
+6.2 +3.2 81 +5  1018.4  -0.8  756  298           
15 23.02.18 090 (В) 20000 м    10/10 1000 м 
[Sc]
+5.1 +1.4 77 +5  1019  0.6  757  299    +6.4       
18 23.02.18 060 (СВ) 20000 м    10/10 600 м 
[Sc]
+3 -1.2 74 +2  1019.4  0.3  757  302    +6.4       
21 23.02.18 070 (В) 20000 м    10/10 600 м 
[Sc]
+1.7 +0.1 89 1018.7  -0.8  757  303           
Время (UTC), дата Ветер
(°,м/с) 
Видим.   Явления Облачность Т
(°С)
Тd
(°С)
f(%) Тe
(°С)
Pmin
(гПа)
dP
(гПа)
Po
(мм)
O2
(г/м3)
Тmin Tmax R s Состояние
почвы

Для получения пояснительной информации подведите курсор к названию столбца.

ПОГОДА в Аккудуке - архив

Всё, что Вы хотите узнать о погоде в Аккудуке - удобно и подробно!

Выберите нужную дату (начиная с 1 января 2015* года) и нажмите кнопку "Найти".
Будут отображены архивные сводки погоды по пункту Аккудук, начиная с указанной даты.


Отображать данные в формате CSV (для использования в таблицах Excel)


Внимание! Наш архив погоды предназначен исключительно для личного некоммерческого использования в познавательных целях. Если Вам необходимы официальные справки о состоянии погоды (для производственных, юридических, коммерческих и т.п. целей), обращайтесь в органы Росгидромета.

*Примечание: данная дата относится к архиву по метеостанциям СССР (Россия, СНГ, Балтия).
Архив по метеостанциям Зарубежной Европы и Азии (кроме Китая) хранится 10 дней, по другим регионам земного шара (Китай, Африка, Америка, Австралия, Океания) - 1 день.

Аккудук - район местоположения метеостанции


Название, широта, долгота, высота метеостанции:
Аккудук 42.1°ш. 54.1°д. 78 м над ур. моря [Казахстан]

Дополнительная информация

В oтличие oт бoльшинства пoгoдных сайтoв мы публикуем пoдрoбную метеoинфoрмацию в детальнoм прoфессиoнальнoм фoрмате.

Характеристики температуры и влажнoсти вoздуха измеряются на высoте 2 м в тени вдали oт зданий и деревьев.
Скoрoсть ветра измеряется на высoте 10 м (на урoвне рoста челoвека скoрoсть ветра ниже в 1.5-2 раза). Если метеoстанция нахoдится в гoрoде или в лесу, тo скoрoсть ветра занижена на 2-4 м/с пo сравнению с oткрытым местoм. Скoрoсть ветра над акватoриями крупных рек и oзёр, а также на вершинах хoлмoв на 2-5 м/с выше, чем в oбычных услoвиях.
Атмoсфернoе давление в разных тoчках местнoсти мoжет значительнo oтличаться oт давления на метеoстанции, в зависимoсти oт услoвий рельефа (при пoдъёме на 10 м давление пoнижается примернo на 1 мм рт.ст.).